sat.trackr.live / text

‹ back to catalog

ONEWEB-0305

NORAD 49093 · 2021-075U

PAYLOAD ACTIVE UNKNOWN

§ Identity

Operator
Country
UK
Launch date
2021-08-21
Launch site
TYMSC
Launch vehicle
Mass (kg)
RCS (m²)

Purposes: comms

External: N2YO · Heavens-Above · Gunter

§ Orbital elements

Epoch: 2026-05-25T01:50:51.804672Z

Period
109.29 min
Inclination
87.9161°
Eccentricity
0.0002104
Mean motion
13.17650750 rev/d
Perigee alt
1,192.1 km
Apogee alt
1,195.3 km
Semi-major
7,571.8 km
B*
2.4410e-5
RAAN
10.4488°
Arg perigee
94.0529°
Mean anomaly
266.0843°
Rev number
23,056

§ Raw data

ONEWEB-03051 49093U 21075U   26145.07698848  .00000022  00000+0  24410-4 0  99962 49093  87.9161  10.4488 0002104  94.0529 266.0843 13.17650750230560

JSON: /api/v1/satellites/49093 · /tle

For live sub-satellite position, see the globe view (requires WebGL).

§ Visibility from observer

Set your observer location to see the next 7 days of passes ≥ 10°. The values pass through the URL so the page stays shareable.

No JS? Fill the form by hand. The geolocation button needs JavaScript.